• vieta
  • image
  • image
  • image
mod_vvisit_countermod_vvisit_countermod_vvisit_countermod_vvisit_countermod_vvisit_countermod_vvisit_countermod_vvisit_counter
mod_vvisit_counterŠiandien318
mod_vvisit_counterVakar874
mod_vvisit_counterŠią savaitę4984
mod_vvisit_counterPraėjusią savaitę5522
mod_vvisit_counterŠį mėnesį15469
mod_vvisit_counterPraėjusį mėnesį23031
mod_vvisit_counterViso1001426

Mes turime: 7 svečius online
Jūsų IP: 54.92.160.119
 , 
Šiandien: Spa 21, 2018
Oro uostas / Naujienos / 2013 Spalis

2013 Spalis

Šiaulių miesto savivaldybė bei SĮ Šiaulių oro uostas kartu su Šiaulių oro uoste veiklą vykdančiomis įmonėmis UAB „Rikusta“ (krovinių sandėliavimas), UAB „Bages“ (orlaivių aptarnavimo technika) bei užsakomųjų skrydžių organizavimo bendrove „Flight Consulting Group Ltd.“ (Latvija) dalyvaus šiemet Stambule (Turkija) lapkričio 21-23 d. vyksiančioje transporto ir logistikos parodoje „Logitrans 2013“.

Tarptautinė transporto ir logistikos paroda „Logitrans 2013“ Turkijoje organizuojama jau septintą kartą. Šiais metais pirmą kartą čia bus pristatytas „Air Cargo“ paviljonas, skirtas išimtinai krovinių gabenimo oro transportu pramonei bei logistikai, kuriame Šiaulių m. savivaldybė bei SĮ Šiaulių oro uosto atstovai su partneriais bendru stendu pristatys savo paslaugas. Šiaulių m. savivaldybė, siekdama pritraukti investicijas į Šiaulius bei  užtikrinti Šiaulių miesto ir  pramoninio parko žinomumą ir matomumą, pristatinės Šiaulių pramoninį parką bei jo verslo sąlygas, Šiaulių miesto investicijų aplinką ir jos galimybes. SĮ Šiaulių oro uostas, kaip Šiaulių m. savivaldybės vykdomo „Šiaulių pramoninio parko rinkodaros projekto „Investuok Šiauliuose” sudėtinė dalis, savo ruožtu skleis informaciją apie civilinį Šiaulių oro uostą, jame teikiamas paslaugas bei krovinių gabenimo per oro uostą galimybes.

Be daugelio Turkijos logistikos įmonių parodoje dalyvaus ir Vokietijos, Italijos, Šveicarijos, Latvijos, Austrijos ir kt. šalių logistikos bendrovės.

Maloniai kviečiame Jus apsilankyti mūsų stende Nr. 228 „Air Cargo“ paviljone. Iki pasimatymo parodoje!

Šiandien

Sekmadienis, 21 Spalis 2018

Orų prognozė aviacijai

[source: ADDS]
METAR
EYSA 210737Z 25004KT 0450 R32R1500U FG OVC001 05/04 Q1026 RED TEMPO 1100 BR OVC002 AMB =
TAF EYSA 210511Z 2106/2115 VRB04KT 0400 FG VV002 TEMPO 2106/2108 1500 BR BKN003 BECMG 2108/2110 6000 SCT010 BKN020
TAF
TAF EYSA 210511Z 2106/2115 VRB04KT 0400 FG VV002 TEMPO 2106/2108 1500 BR BKN003 BECMG 2108/2110 6000 SCT010 BKN020 =
SR / SS: 05:10 / 15:15 UTC (EYSA 2018-10-21)

Paieška

Lankytojai

Mes turime 7 svečius online

tic logo lt